Weather History for Faith, SD

Change the Weather History Date:

Friday, September 6, 2013

  Actual Average Record
Temperature  
Mean Temperature 80 °F 65 °F  
Max Temperature 96 °F 79 °F 98 °F (2002)
Min Temperature 64 °F 52 °F 45 °F (2004)
Degree Days  
Heating Degree Days 0 3  
Month to date heating degree days 0 16  
Since 1 July heating degree days 15 49  
Cooling Degree Days 15 4  
Month to date cooling degree days 60 26  
Year to date cooling degree days 650 601  
Growing Degree Days 30 (Base 50)    
Moisture  
Dew Point 63 °F    
Average Humidity 60    
Maximum Humidity 87    
Minimum Humidity 33    
Precipitation  
Precipitation 0.00 in 0.05 in 0.80 in (2010)
Month to date precipitation 0.00 0.35  
Year to date precipitation 12.37 14.17  
Sea Level Pressure  
Sea Level Pressure 29.89 in    
Wind  
Wind Speed 9 mph (ENE)    
Max Wind Speed 21 mph    
Max Gust Speed 26 mph    
T = Trace of Precipitation, MM = Missing Value Source: NWS Daily Summary

Daily Weather History Graph

Daily Weather History Graph

Search for Another Location

Airport:

Trip Planner

Search our weather history database for the weather conditions in past years. The results will help you decide how hot, cold, wet, or windy it might be!

Date:

Astronomy

Sep. 06, 2013 Rise Set
Actual Time 6:16 AM MDT 7:15 PM MDT
Civil Twilight 5:46 AM MDT 7:45 PM MDT
Nautical Twilight 5:10 AM MDT 8:20 PM MDT
Astronomical Twilight 4:32 AM MDT 8:58 PM MDT
Moon 7:36 AM MDT (9/6) 7:33 PM MDT (9/6)
Length of Visible Light 13h 58m
Length of Day
12h 59m
New Moon, 2% of the Moon is Illuminated
Sep 6
New Moon
Sep 12
First Quarter
Sep 19
Full
Sep 26
Last Quarter
Oct 4
New

Hourly Weather History & Observations

Time (MDT) Temp. Heat Index Dew Point Humidity Pressure Visibility Wind Dir Wind Speed Gust Speed Precip Events Conditions
12:56 AM 72.0 °F - 63.0 °F 73% 29.89 in - East 8.1 mph - N/A   Unknown
1:56 AM 68.0 °F - 62.1 °F 81% 29.89 in - East 4.6 mph - N/A   Unknown
2:56 AM 66.0 °F - 62.1 °F 87% 29.89 in - NE 5.8 mph - N/A   Unknown
3:56 AM 66.0 °F - 63.0 °F 90% 29.88 in - ENE 5.8 mph - N/A   Unknown
4:56 AM 66.0 °F - 62.1 °F 87% 29.88 in - NNE 5.8 mph - N/A   Unknown
5:56 AM 66.9 °F - 62.1 °F 84% 29.86 in - SE 5.8 mph - N/A   Unknown
6:56 AM 68.0 °F - 63.0 °F 84% 29.88 in - East 3.5 mph - N/A   Unknown
7:56 AM 70.0 °F - 64.0 °F 81% 29.90 in - NE 5.8 mph - N/A   Unknown
8:56 AM 75.0 °F - 64.0 °F 69% 29.92 in - NNW 11.5 mph - N/A   Unknown
9:56 AM 80.1 °F 81.9 °F 64.9 °F 60% 29.93 in - North 15.0 mph 21.9 mph N/A   Unknown
10:56 AM 84.9 °F 86.6 °F 64.9 °F 51% 29.92 in - NNE 18.4 mph - N/A   Unknown
11:56 AM 89.1 °F 90.0 °F 63.0 °F 42% 29.90 in - ENE 18.4 mph 23.0 mph N/A   Unknown
12:56 PM 91.0 °F 90.9 °F 61.0 °F 36% 29.90 in - East 10.4 mph 19.6 mph N/A   Unknown
1:56 PM 93.9 °F 94.0 °F 61.0 °F 33% 29.89 in - East 12.7 mph 23.0 mph N/A   Unknown
2:56 PM 95.0 °F 95.6 °F 62.1 °F 33% 29.88 in - East 11.5 mph 16.1 mph N/A   Unknown
3:56 PM 95.0 °F 96.0 °F 63.0 °F 34% 29.88 in - East 4.6 mph - N/A   Unknown
4:56 PM 93.9 °F 94.8 °F 62.1 °F 35% 29.88 in - East 5.8 mph - N/A   Unknown
5:56 PM 93.9 °F 94.8 °F 62.1 °F 35% 29.88 in - ENE 6.9 mph - N/A   Unknown
6:56 PM 89.1 °F 89.3 °F 62.1 °F 40% 29.87 in - ENE 8.1 mph - N/A   Unknown
7:56 PM 82.0 °F 82.7 °F 61.0 °F 49% 29.89 in - East 8.1 mph - N/A   Unknown
8:56 PM 78.1 °F - 61.0 °F 56% 29.89 in - East 6.9 mph - N/A   Unknown
9:56 PM 78.1 °F - 62.1 °F 58% 29.89 in - East 6.9 mph - N/A   Unknown
10:56 PM 78.1 °F - 63.0 °F 60% 29.90 in - SE 10.4 mph - N/A   Unknown
11:56 PM 78.1 °F - 64.0 °F 62% 29.91 in - SE 10.4 mph - N/A   Unknown